TimeCDT,TemperatureF,Dew PointF,Humidity,Sea Level PressureIn,VisibilityMPH,Wind Direction,Wind SpeedMPH,Gust SpeedMPH,PrecipitationIn,Events,Conditions,WindDirDegrees,DateUTC
12:15 AM,55.4,48.2,77,29.99,10.0,Calm,Calm,-,N/A,,Clear,0,2013-09-23 05:15:00
12:35 AM,55.4,48.2,77,29.99,10.0,Calm,Calm,-,N/A,,Clear,0,2013-09-23 05:35:00
12:55 AM,55.4,48.2,77,29.99,10.0,Calm,Calm,-,N/A,,Clear,0,2013-09-23 05:55:00
1:15 AM,53.6,46.4,77,29.99,10.0,Calm,Calm,-,N/A,,Clear,0,2013-09-23 06:15:00
1:35 AM,55.4,48.2,77,29.99,10.0,NNE,3.5,-,N/A,,Clear,20,2013-09-23 06:35:00
1:55 AM,55.4,48.2,77,29.99,10.0,NNE,3.5,-,N/A,,Clear,20,2013-09-23 06:55:00
2:15 AM,53.6,48.2,82,29.99,10.0,Calm,Calm,-,N/A,,Clear,0,2013-09-23 07:15:00
2:35 AM,53.6,48.2,82,29.99,10.0,Calm,Calm,-,N/A,,Clear,0,2013-09-23 07:35:00
2:55 AM,53.6,46.4,77,29.99,10.0,NNE,3.5,-,N/A,,Clear,20,2013-09-23 07:55:00
3:15 AM,53.6,46.4,77,29.99,10.0,Calm,Calm,-,N/A,,Clear,0,2013-09-23 08:15:00
3:35 AM,53.6,46.4,77,29.99,10.0,NNE,3.5,-,N/A,,Clear,20,2013-09-23 08:35:00
3:55 AM,51.8,46.4,82,29.99,10.0,NNE,4.6,-,N/A,,Clear,30,2013-09-23 08:55:00
4:15 AM,51.8,46.4,82,29.99,10.0,NE,4.6,-,N/A,,Clear,40,2013-09-23 09:15:00
4:35 AM,51.8,46.4,82,29.99,10.0,NE,3.5,-,N/A,,Clear,40,2013-09-23 09:35:00
4:55 AM,51.8,46.4,82,30.00,10.0,Calm,Calm,-,N/A,,Clear,0,2013-09-23 09:55:00
5:15 AM,51.8,46.4,82,30.01,10.0,Calm,Calm,-,N/A,,Clear,0,2013-09-23 10:15:00
5:35 AM,51.8,46.4,82,30.01,10.0,Calm,Calm,-,N/A,,Clear,0,2013-09-23 10:35:00
5:55 AM,51.8,46.4,82,30.01,10.0,NNE,3.5,-,N/A,,Clear,30,2013-09-23 10:55:00
6:15 AM,51.8,46.4,82,30.02,10.0,NNE,3.5,-,N/A,,Clear,30,2013-09-23 11:15:00
6:35 AM,51.8,46.4,82,30.03,10.0,NNE,3.5,-,N/A,,Clear,20,2013-09-23 11:35:00
6:55 AM,50.0,44.6,82,30.04,10.0,NNE,3.5,-,N/A,,Clear,30,2013-09-23 11:55:00
7:15 AM,51.8,46.4,82,30.05,10.0,Calm,Calm,-,N/A,,Clear,0,2013-09-23 12:15:00
7:35 AM,51.8,46.4,82,30.06,10.0,NNE,3.5,-,N/A,,Clear,20,2013-09-23 12:35:00
7:55 AM,53.6,48.2,82,30.06,10.0,NNE,3.5,-,N/A,,Clear,30,2013-09-23 12:55:00
8:15 AM,55.4,50.0,82,30.06,10.0,Calm,Calm,-,N/A,,Clear,0,2013-09-23 13:15:00
8:35 AM,59.0,48.2,67,30.06,10.0,East,5.8,-,N/A,,Clear,100,2013-09-23 13:35:00
8:55 AM,60.8,50.0,68,30.06,10.0,ESE,5.8,-,N/A,,Clear,120,2013-09-23 13:55:00
9:15 AM,60.8,50.0,68,30.06,10.0,East,6.9,-,N/A,,Clear,100,2013-09-23 14:15:00
9:35 AM,62.6,50.0,63,30.06,10.0,ESE,5.8,-,N/A,,Clear,110,2013-09-23 14:35:00
9:55 AM,64.4,48.2,56,30.06,10.0,East,6.9,-,N/A,,Clear,80,2013-09-23 14:55:00
10:15 AM,66.2,48.2,52,30.06,10.0,East,5.8,-,N/A,,Clear,100,2013-09-23 15:15:00
10:35 AM,66.2,46.4,49,30.06,10.0,SE,6.9,-,N/A,,Clear,130,2013-09-23 15:35:00
10:55 AM,69.8,46.4,43,30.06,10.0,ESE,10.4,-,N/A,,Clear,120,2013-09-23 15:55:00
11:15 AM,69.8,44.6,40,30.06,10.0,SE,4.6,-,N/A,,Clear,130,2013-09-23 16:15:00
11:35 AM,69.8,44.6,40,30.05,10.0,East,8.1,-,N/A,,Clear,100,2013-09-23 16:35:00
11:55 AM,69.8,44.6,40,30.04,10.0,East,5.8,-,N/A,,Clear,90,2013-09-23 16:55:00
12:15 PM,71.6,44.6,38,30.05,10.0,ENE,9.2,-,N/A,,Clear,70,2013-09-23 17:15:00
12:35 PM,71.6,44.6,38,30.04,10.0,ENE,9.2,-,N/A,,Clear,70,2013-09-23 17:35:00
12:55 PM,71.6,44.6,38,30.03,10.0,ESE,10.4,-,N/A,,Clear,110,2013-09-23 17:55:00
1:15 PM,73.4,44.6,36,30.02,10.0,ENE,10.4,-,N/A,,Clear,70,2013-09-23 18:15:00
1:35 PM,73.4,42.8,33,30.02,10.0,ENE,5.8,-,N/A,,Clear,60,2013-09-23 18:35:00
1:55 PM,73.4,42.8,33,30.01,10.0,Calm,Calm,-,N/A,,Clear,0,2013-09-23 18:55:00
2:15 PM,75.2,44.6,34,30.00,10.0,East,8.1,-,N/A,,Clear,80,2013-09-23 19:15:00
2:35 PM,73.4,44.6,36,29.99,10.0,ENE,10.4,-,N/A,,Clear,70,2013-09-23 19:35:00
2:55 PM,73.4,44.6,36,29.99,10.0,East,5.8,-,N/A,,Clear,80,2013-09-23 19:55:00
3:15 PM,75.2,44.6,34,29.98,10.0,ENE,9.2,-,N/A,,Clear,60,2013-09-23 20:15:00
3:35 PM,75.2,44.6,34,29.98,10.0,East,8.1,-,N/A,,Clear,100,2013-09-23 20:35:00
3:55 PM,75.2,46.4,36,29.98,10.0,ESE,6.9,-,N/A,,Clear,110,2013-09-23 20:55:00
4:15 PM,75.2,46.4,36,29.97,10.0,East,6.9,-,N/A,,Clear,100,2013-09-23 21:15:00
4:35 PM,75.2,46.4,36,29.98,10.0,NE,6.9,-,N/A,,Clear,50,2013-09-23 21:35:00
4:55 PM,75.2,46.4,36,29.98,10.0,East,8.1,-,N/A,,Clear,100,2013-09-23 21:55:00
5:15 PM,73.4,46.4,38,29.98,10.0,East,9.2,-,N/A,,Clear,90,2013-09-23 22:15:00
5:35 PM,73.4,48.2,41,29.97,10.0,ESE,5.8,-,N/A,,Clear,120,2013-09-23 22:35:00
5:55 PM,73.4,48.2,41,29.97,10.0,East,8.1,-,N/A,,Clear,90,2013-09-23 22:55:00
6:15 PM,71.6,48.2,43,29.97,10.0,East,5.8,-,N/A,,Clear,100,2013-09-23 23:15:00
6:35 PM,68.0,50.0,52,29.97,10.0,ENE,4.6,-,N/A,,Clear,70,2013-09-23 23:35:00
6:55 PM,68.0,48.2,49,29.98,10.0,Calm,Calm,-,N/A,,Clear,0,2013-09-23 23:55:00
7:15 PM,66.2,50.0,56,29.98,10.0,East,3.5,-,N/A,,Clear,80,2013-09-24 00:15:00
7:35 PM,64.4,50.0,59,29.98,10.0,ENE,3.5,-,N/A,,Clear,60,2013-09-24 00:35:00
7:55 PM,64.4,50.0,59,29.98,10.0,ENE,3.5,-,N/A,,Clear,70,2013-09-24 00:55:00
8:15 PM,64.4,48.2,56,29.98,10.0,ENE,3.5,-,N/A,,Clear,60,2013-09-24 01:15:00
8:35 PM,64.4,48.2,56,29.99,10.0,Calm,Calm,-,N/A,,Clear,0,2013-09-24 01:35:00
8:55 PM,62.6,48.2,59,29.99,10.0,ENE,4.6,-,N/A,,Clear,70,2013-09-24 01:55:00
9:15 PM,62.6,48.2,59,29.99,10.0,ENE,3.5,-,N/A,,Clear,70,2013-09-24 02:15:00
9:35 PM,62.6,48.2,59,29.99,10.0,Calm,Calm,-,N/A,,Clear,0,2013-09-24 02:35:00
9:55 PM,60.8,50.0,68,29.99,10.0,Calm,Calm,-,N/A,,Clear,0,2013-09-24 02:55:00
10:15 PM,60.8,50.0,68,29.99,10.0,East,3.5,-,N/A,,Clear,90,2013-09-24 03:15:00
10:35 PM,57.2,48.2,72,29.99,10.0,East,5.8,-,N/A,,Clear,90,2013-09-24 03:35:00
10:55 PM,59.0,50.0,72,29.98,10.0,East,5.8,-,N/A,,Clear,80,2013-09-24 03:55:00
11:15 PM,59.0,50.0,72,29.98,10.0,East,5.8,-,N/A,,Clear,90,2013-09-24 04:15:00
11:35 PM,59.0,50.0,72,29.98,10.0,East,5.8,-,N/A,,Clear,90,2013-09-24 04:35:00
11:55 PM,57.2,50.0,77,29.98,10.0,Calm,Calm,-,N/A,,Clear,0,2013-09-24 04:55:00